COSMOS 2219

Last updated on Mon Sep 21 2026 00:02:08 GMT+0000 (Coordinated Universal Time)

1 22219U 92076A 26263.47355281 -.00000296 00000+0 -13018-3 0 9998 2 22219 71.0623 330.8760 0020661 263.8992 95.9776 14.14110255745911
UTC large
Height (km)
Speed (km/s)
/
Latitude / Longitude
Inclination (degrees)
Orbital Period (minutes)
Azimuth
Elevation
Range (km)
Doppler Factor

Next 0 passes for location: London (51.5072 / 0.1276)

No passes found over London.
COSMOS 2219